When you browse on this site, cookies collect data to enhance your experience and personalize the content and advertising you see.
Visit our Privacy Policy to learn more. By continuing to use the site, you agree to this use of cookies and data.
  • In Belgien
  • Länderverzeichnis
  • Für 7 Tage
  • Wassertemperatur
  • Satellitenkarten
  • Wetterkarte
  • Widgets
  • user-avatar
    Anmelden

    Stündliche Wetter Pechetovo

    Heute, 18 Februar, Montag

    Zeit Temperatur Niederschläge Wind Luftdruck Luftfeuchtigkeit
    00:00 -5°C° 0 mm 6 m/S 741 mmHg 77%
    01:00 -5°C° 0 mm 6 m/S 742 mmHg 77%
    02:00 -6°C° 0 mm 6 m/S 743 mmHg 76%
    03:00 -8°C° 0 mm 6 m/S 744 mmHg 77%
    04:00 -8°C° 0 mm 6 m/S 745 mmHg 77%
    05:00 -8°C° 0 mm 6 m/S 745 mmHg 77%
    06:00 -9°C° 0 mm 6 m/S 746 mmHg 78%
    07:00 -8°C° 0 mm 5 m/S 747 mmHg 79%
    08:00 -10°C° 0 mm 5 m/S 748 mmHg 80%
    09:00 -10°C° 0 mm 5 m/S 749 mmHg 79%
    10:00 -10°C° 0 mm 5 m/S 749 mmHg 78%
    11:00 -8°C° 0 mm 5 m/S 750 mmHg 77%
    12:00 -8°C° 0 mm 5 m/S 751 mmHg 77%
    13:00 -8°C° 0 mm 5 m/S 751 mmHg 77%
    14:00 -8°C° 0 mm 4 m/S 751 mmHg 77%
    15:00 -8°C° 0 mm 3 m/S 752 mmHg 80%
    16:00 -9°C° 0 mm 3 m/S 752 mmHg 84%
    17:00 -9°C° 0 mm 2 m/S 752 mmHg 88%
    18:00 -9°C° 0 mm 2 m/S 753 mmHg 89%
    19:00 -9°C° 0 mm 1 m/S 753 mmHg 90%
    20:00 -10°C° 0 mm 1 m/S 753 mmHg 91%
    21:00 -10°C° 0 mm 1 m/S 753 mmHg 91%
    22:00 -10°C° 0 mm 1 m/S 753 mmHg 91%
    23:00 -10°C° 0 mm 1 m/S 753 mmHg 90%

    Morgen, 19 Februar, Dienstag

    Zeit Temperatur Niederschläge Wind Luftdruck Luftfeuchtigkeit
    00:00 -10°C° 0 mm 1 m/S 753 mmHg 90%
    01:00 -12°C° 0 mm 2 m/S 752 mmHg 89%
    02:00 -10°C° 0 mm 2 m/S 752 mmHg 89%
    03:00 -10°C° 0 mm 3 m/S 751 mmHg 85%
    04:00 -10°C° 0 mm 4 m/S 751 mmHg 82%
    05:00 -10°C° 0 mm 4 m/S 750 mmHg 79%
    06:00 -10°C° 0 mm 5 m/S 749 mmHg 79%
    07:00 -10°C° 0 mm 5 m/S 749 mmHg 79%
    08:00 -10°C° 0 mm 5 m/S 748 mmHg 79%
    09:00 -7°C° 0 mm 5 m/S 748 mmHg 77%
    10:00 -6°C° 0 mm 5 m/S 747 mmHg 76%
    11:00 -5°C° 0 mm 5 m/S 746 mmHg 75%
    12:00 -4°C° 0 mm 5 m/S 746 mmHg 76%
    13:00 -2°C° 0 mm 5 m/S 746 mmHg 77%
    14:00 -2°C° 0 mm 5 m/S 745 mmHg 79%
    15:00 -2°C° 0 mm 4 m/S 745 mmHg 81%
    16:00 -3°C° 0 mm 4 m/S 744 mmHg 83%
    17:00 -2°C° 0 mm 3 m/S 744 mmHg 85%
    18:00 -4°C° 0 mm 3 m/S 743 mmHg 85%
    19:00 -4°C° 0 mm 4 m/S 743 mmHg 85%
    20:00 -4°C° 0 mm 4 m/S 742 mmHg 85%
    21:00 -4°C° 0 mm 4 m/S 742 mmHg 86%
    22:00 -4°C° 0 mm 4 m/S 741 mmHg 87%
    23:00 -4°C° 0 mm 4 m/S 741 mmHg 88%

    übermorgen, 20 Februar, Mittwoch

    Zeit Temperatur Niederschläge Wind Luftdruck Luftfeuchtigkeit
    00:00 -4°C° 0 mm 4 m/S 740 mmHg 88%
    01:00 -4°C° 0 mm 5 m/S 739 mmHg 89%
    02:00 -4°C° 0 mm 5 m/S 739 mmHg 89%
    03:00 -4°C° 0.1 mm 5 m/S 738 mmHg 89%
    04:00 -2°C° 0.1 mm 5 m/S 737 mmHg 88%
    05:00 -2°C° 0.1 mm 5 m/S 736 mmHg 88%
    06:00 -2°C° 0.1 mm 5 m/S 736 mmHg 88%
    07:00 -1°C° 0.1 mm 5 m/S 736 mmHg 89%
    08:00 -1°C° 0.1 mm 6 m/S 735 mmHg 89%
    09:00 0°C° 0.1 mm 5 m/S 735 mmHg 90%
    10:00 0°C° 0.1 mm 5 m/S 735 mmHg 91%
    11:00 0°C° 0.1 mm 4 m/S 735 mmHg 91%
    12:00 0°C° 0.1 mm 4 m/S 735 mmHg 91%
    13:00 0°C° 0.1 mm 5 m/S 735 mmHg 91%
    14:00 0°C° 0.1 mm 5 m/S 735 mmHg 90%
    15:00 0°C° 0 mm 4 m/S 735 mmHg 89%
    16:00 0°C° 0 mm 4 m/S 735 mmHg 88%
    17:00 -1°C° 0 mm 4 m/S 734 mmHg 87%
    18:00 -1°C° 0.1 mm 4 m/S 734 mmHg 87%
    19:00 -1°C° 0.1 mm 4 m/S 734 mmHg 88%
    20:00 -1°C° 0.1 mm 4 m/S 734 mmHg 89%
    21:00 -1°C° 0.3 mm 4 m/S 733 mmHg 89%
    22:00 -1°C° 0.3 mm 4 m/S 733 mmHg 89%
    23:00 -1°C° 0.3 mm 4 m/S 733 mmHg 89%

    21 Februar, Donnerstag

    Zeit Temperatur Niederschläge Wind Luftdruck Luftfeuchtigkeit
    00:00 -2°C° 0.1 mm 4 m/S 733 mmHg 88%
    01:00 -3°C° 0.1 mm 4 m/S 733 mmHg 87%
    02:00 -4°C° 0.1 mm 4 m/S 733 mmHg 86%
    03:00 -5°C° 0 mm 3 m/S 733 mmHg 88%
    04:00 -6°C° 0 mm 3 m/S 733 mmHg 90%
    05:00 -6°C° 0 mm 2 m/S 733 mmHg 91%
    06:00 -6°C° 0 mm 2 m/S 733 mmHg 92%
    07:00 -4°C° 0 mm 1 m/S 733 mmHg 93%
    08:00 -4°C° 0 mm 1 m/S 733 mmHg 94%
    09:00 -5°C° 0.1 mm 2 m/S 733 mmHg 92%
    10:00 -3°C° 0.1 mm 2 m/S 734 mmHg 89%
    11:00 -2°C° 0.1 mm 3 m/S 734 mmHg 86%
    12:00 -4°C° 0.1 mm 4 m/S 735 mmHg 86%
    13:00 -4°C° 0.1 mm 4 m/S 735 mmHg 86%
    14:00 -5°C° 0.1 mm 5 m/S 736 mmHg 86%
    15:00 -6°C° 0.1 mm 5 m/S 737 mmHg 85%
    16:00 -8°C° 0.1 mm 6 m/S 738 mmHg 84%
    17:00 -9°C° 0.1 mm 7 m/S 739 mmHg 83%
    18:00 -9°C° 0.1 mm 7 m/S 740 mmHg 82%
    19:00 -11°C° 0.1 mm 7 m/S 741 mmHg 81%
    20:00 -12°C° 0.1 mm 7 m/S 742 mmHg 80%
    21:00 -12°C° 0.1 mm 7 m/S 743 mmHg 80%
    22:00 -13°C° 0.1 mm 7 m/S 744 mmHg 79%
    23:00 -13°C° 0.1 mm 7 m/S 745 mmHg 78%

    22 Februar, Freitag

    Zeit Temperatur Niederschläge Wind Luftdruck Luftfeuchtigkeit
    00:00 -14°C° 0 mm 7 m/S 746 mmHg 77%
    01:00 -14°C° 0 mm 7 m/S 747 mmHg 77%
    02:00 -15°C° 0 mm 7 m/S 747 mmHg 76%
    03:00 -17°C° 0 mm 7 m/S 748 mmHg 75%
    04:00 -17°C° 0 mm 7 m/S 749 mmHg 74%
    05:00 -18°C° 0 mm 7 m/S 749 mmHg 73%
    06:00 -18°C° 0 mm 7 m/S 750 mmHg 72%
    07:00 -17°C° 0 mm 7 m/S 751 mmHg 70%
    08:00 -17°C° 0 mm 7 m/S 752 mmHg 69%
    09:00 -17°C° 0 mm 7 m/S 752 mmHg 68%
    10:00 -15°C° 0 mm 7 m/S 753 mmHg 68%
    11:00 -15°C° 0 mm 8 m/S 753 mmHg 67%
    12:00 -15°C° 0 mm 8 m/S 754 mmHg 68%
    13:00 -13°C° 0 mm 8 m/S 754 mmHg 69%
    14:00 -13°C° 0 mm 8 m/S 755 mmHg 69%
    15:00 -13°C° 0 mm 7 m/S 755 mmHg 70%
    16:00 -13°C° 0 mm 7 m/S 756 mmHg 72%
    17:00 -14°C° 0 mm 6 m/S 757 mmHg 73%
    18:00 -14°C° 0 mm 6 m/S 757 mmHg 75%
    19:00 -14°C° 0 mm 6 m/S 758 mmHg 78%
    20:00 -14°C° 0 mm 6 m/S 759 mmHg 80%
    21:00 -13°C° 0 mm 5 m/S 759 mmHg 82%
    22:00 -13°C° 0 mm 5 m/S 760 mmHg 83%
    23:00 -14°C° 0 mm 5 m/S 760 mmHg 85%

    23 Februar, Samstag

    Zeit Temperatur Niederschläge Wind Luftdruck Luftfeuchtigkeit
    00:00 -14°C° 0 mm 4 m/S 760 mmHg 86%
    01:00 -15°C° 0 mm 4 m/S 761 mmHg 86%
    02:00 -14°C° 0 mm 3 m/S 761 mmHg 86%
    03:00 -15°C° 0 mm 3 m/S 761 mmHg 86%
    04:00 -14°C° 0 mm 2 m/S 761 mmHg 86%
    05:00 -14°C° 0 mm 2 m/S 761 mmHg 87%
    06:00 -13°C° 0 mm 2 m/S 760 mmHg 84%
    07:00 -12°C° 0 mm 2 m/S 760 mmHg 81%
    08:00 -12°C° 0 mm 2 m/S 760 mmHg 78%
    09:00 -10°C° 0 mm 3 m/S 759 mmHg 75%
    10:00 -9°C° 0 mm 3 m/S 759 mmHg 72%
    11:00 -9°C° 0 mm 4 m/S 758 mmHg 68%
    12:00 -9°C° 0.2 mm 4 m/S 758 mmHg 74%
    13:00 -8°C° 0.2 mm 4 m/S 757 mmHg 80%
    14:00 -8°C° 0.2 mm 4 m/S 757 mmHg 86%
    15:00 -8°C° 0.2 mm 4 m/S 756 mmHg 87%
    16:00 -8°C° 0.2 mm 4 m/S 756 mmHg 88%
    17:00 -7°C° 0.2 mm 3 m/S 756 mmHg 89%
    18:00 -7°C° 0 mm 3 m/S 756 mmHg 90%
    19:00 -7°C° 0 mm 3 m/S 755 mmHg 91%
    20:00 -7°C° 0 mm 3 m/S 755 mmHg 91%
    21:00 -7°C° 0 mm 3 m/S 755 mmHg 92%
    22:00 -7°C° 0 mm 3 m/S 755 mmHg 93%
    23:00 -7°C° 0 mm 3 m/S 754 mmHg 93%
    Mehr zeigen